Location: Casteau
(50.5142°N, 4.0161°E)
Time: 15:02:08
(UTC+00:00)

Cosmos 858 Rocket - Pass Details

Date: 18 September 2020
Orbit: 756 x 774 km, 74.1° (Epoch: 24 October)

Event Time Altitude Azimuth Distance (km) Brightness Sun altitude
Rises 18:37:47 0° 191° (SSW) 3,219 7.7 -8.3°
Reaches altitude 10° 18:40:10 10° 189° (S) 2,294 6.9 -8.7°
Maximum altitude 18:45:18 63° 109° (ESE) 854 4.5 -9.5°
Drops below altitude 10° 18:50:26 10° 30° (NNE) 2,301 6.8 -10.3°
Sets 18:52:50 0° 27° (NNE) 3,229 7.6 -10.6°
